M I D A S
Marine Information and Data Acquisition System
Tripno 522 of the Zeeleeuw from 2003-06-23 06:31:47 to 2003-06-23 11:49:05
Back to CruiseResearch ActivitiesStationsMapUnderway DataData graphs

EquipmentUnitsComment
TimeDGPSUTC
LatitudeDGPSDM.mWGS84
LongitudeDGPSDM.mWGS84
HeadingGyrodeg 
SOGDGPSknotsSpeed over ground
COGDGPSdegCourse over ground
DepthEcho soundermeters200 kHz
Missing or incorrect values are displayed as -999
Navigation data collected by the RV Zeeleeuw from 2003-06-23 06:31:47 to 2003-06-23 11:49:05
                                                                                    Next 1000 lines
Time Latitude Longitude Heading SOG COG Depth
2003-06-23 06:31:57 51°13.62 2°56.02 113.7 4 292 -999
2003-06-23 06:32:01 51°13.62 2°56.01 114.3 4.1 292 -999
2003-06-23 06:32:07 51°13.62 2°56 114.9 4.3 292 -999
2003-06-23 06:32:13 51°13.62 2°55.99 115.4 4.4 293 -999
2003-06-23 06:32:17 51°13.63 2°55.98 116 4.6 293 -999
2003-06-23 06:32:23 51°13.63 2°55.97 116.6 4.7 294 -999
2003-06-23 06:32:29 51°13.63 2°55.96 117.2 4.9 295 -999
2003-06-23 06:32:33 51°13.64 2°55.95 118 5 296 -999
2003-06-23 06:32:39 51°13.64 2°55.94 118.7 5 296 -999
2003-06-23 06:32:43 51°13.64 2°55.93 119 4.9 296 -999
2003-06-23 06:32:49 51°13.64 2°55.92 119 4.9 296 -999
2003-06-23 06:32:53 51°13.65 2°55.91 118.8 4.9 296 -999
2003-06-23 06:32:59 51°13.65 2°55.9 118.7 4.8 296 -999
2003-06-23 06:33:03 51°13.65 2°55.9 118.5 4.8 296 -999
2003-06-23 06:33:09 51°13.66 2°55.88 118.2 4.7 296 -999
2003-06-23 06:33:13 51°13.66 2°55.88 117.4 4.7 295 -999
2003-06-23 06:33:19 51°13.66 2°55.86 116.4 4.6 294 -999
2003-06-23 06:33:23 51°13.66 2°55.86 114.6 4.6 292 -999
2003-06-23 06:33:29 51°13.67 2°55.85 113 4.5 291 -999
2003-06-23 06:33:33 51°13.67 2°55.84 111.5 4.4 291 -999
2003-06-23 06:33:39 51°13.67 2°55.83 110.3 4.1 290 -999
2003-06-23 06:33:43 51°13.67 2°55.82 109.3 3.9 289 -999
2003-06-23 06:33:49 51°13.67 2°55.81 108.4 3.8 289 -999
2003-06-23 06:33:53 51°13.67 2°55.81 107.8 3.6 289 11.7
2003-06-23 06:33:57 51°13.68 2°55.8 107.2 3.4 288 11.7
2003-06-23 06:34:03 51°13.68 2°55.79 106.1 3.2 288 12.1
2003-06-23 06:34:07 51°13.68 2°55.79 105 3 288 12.5
2003-06-23 06:34:11 51°13.68 2°55.78 103.4 2.8 287 13.2
2003-06-23 06:34:15 51°13.68 2°55.78 101.8 2.7 286 13.8
2003-06-23 06:34:21 51°13.68 2°55.77 100.2 2.4 286 14.4
2003-06-23 06:34:25 51°13.68 2°55.77 98.3 1.9 291 14.7
2003-06-23 06:34:29 51°13.68 2°55.77 95 1.2 300 14.9
2003-06-23 06:34:33 51°13.68 2°55.77 88.8 0.8 11 15
2003-06-23 06:34:39 51°13.68 2°55.77 80.4 1 45 15.1
2003-06-23 06:34:45 51°13.69 2°55.77 71.5 1.7 46 15.2
2003-06-23 06:34:49 51°13.69 2°55.78 62.8 2.2 49 14.9
2003-06-23 06:34:53 51°13.69 2°55.78 53.4 2.8 43 14.1
2003-06-23 06:34:59 51°13.69 2°55.78 44 3.5 34 13.9
2003-06-23 06:35:05 51°13.7 2°55.79 34.6 3.6 23 13.9
2003-06-23 06:35:09 51°13.7 2°55.79 27.2 3.6 21 13.9
2003-06-23 06:35:13 51°13.71 2°55.79 21.7 3.4 17 13.7
2003-06-23 06:35:19 51°13.71 2°55.79 18.4 2.8 11 13.8
2003-06-23 06:35:25 51°13.72 2°55.79 14.5 2 9 13.6
2003-06-23 06:35:29 51°13.72 2°55.79 9.1 1.3 2 13.5
2003-06-23 06:35:33 51°13.72 2°55.79 4.7 0.8 6 13.4
2003-06-23 06:35:39 51°13.72 2°55.79 2.1 0.2 348 13.4
2003-06-23 06:35:45 51°13.72 2°55.79   0.2 176 13.5
2003-06-23 06:35:49 51°13.72 2°55.79 358.8 0.5 186 13.5
2003-06-23 06:35:53 51°13.72 2°55.79 357.3 0.7 171 13.7
2003-06-23 06:36:01 51°13.72 2°55.79 355.5 1 173 -999
2003-06-23 06:36:05 51°13.71 2°55.8 354.1 1.2 172 -999
2003-06-23 06:36:11 51°13.71 2°55.8 353.4 1.1 172 -999
2003-06-23 06:36:17 51°13.71 2°55.8 352.9 0.9 178 -999
2003-06-23 06:36:21 51°13.71 2°55.8 352.3 0.7 176 -999
2003-06-23 06:36:27 51°13.71 2°55.8 350.6 0.3 204 -999
2003-06-23 06:36:31 51°13.71 2°55.8 347.9 0.3 323 -999
2003-06-23 06:36:37 51°13.71 2°55.79 344 0.7 328 -999
2003-06-23 06:36:43 51°13.71 2°55.79 339.9 1.1 327 -999
2003-06-23 06:36:47 51°13.71 2°55.79 336.1 1.5 329 -999
2003-06-23 06:36:53 51°13.72 2°55.79 332.5 2 326 13.7
2003-06-23 06:36:57 51°13.72 2°55.79 329.2 2.4 325 -999
2003-06-23 06:37:03 51°13.72 2°55.78 325.4 3.1 321 -999
2003-06-23 06:37:09 51°13.73 2°55.77 321.7 3.7 316 -999
2003-06-23 06:37:13 51°13.73 2°55.77 319.6 4.1 315 -999
2003-06-23 06:37:17 51°13.73 2°55.76 317.9 4.5 313 13.2
2003-06-23 06:37:21 51°13.74 2°55.76 317.1 4.8 313 12.8
2003-06-23 06:37:27 51°13.74 2°55.75 316.8 5.3 312 12.7
2003-06-23 06:37:31 51°13.75 2°55.74 316.9 5.5 312 12.7
2003-06-23 06:37:35 51°13.75 2°55.73 317 5.8 312 12.7
2003-06-23 06:37:39 51°13.75 2°55.72 317 6 312 12.7
2003-06-23 06:37:45 51°13.76 2°55.71 317.1 6.3 313 12.6
2003-06-23 06:37:49 51°13.77 2°55.7 318 6.5 314 12.6
2003-06-23 06:37:53 51°13.77 2°55.69 319.6 6.6 316 12.7
2003-06-23 06:37:59 51°13.78 2°55.68 321.5 6.9 318 12.8
2003-06-23 06:38:05 51°13.79 2°55.67 323.8 7 321 12.8
2003-06-23 06:38:09 51°13.8 2°55.66 326.5 7.1 323 12.8
2003-06-23 06:38:13 51°13.8 2°55.66 329.5 7.2 326 12.9
2003-06-23 06:38:19 51°13.81 2°55.65 332.5 7.3 329 12.8
2003-06-23 06:38:25 51°13.82 2°55.64 335.3 7.4 332 12.8
2003-06-23 06:38:29 51°13.83 2°55.63 336.8 7.4 333 12.8
2003-06-23 06:38:33 51°13.84 2°55.62 338 7.5 333 12.5
2003-06-23 06:38:39 51°13.85 2°55.62 339 7.6 334 12.3
2003-06-23 06:38:45 51°13.86 2°55.61 340 7.7 335 12.6
2003-06-23 06:38:49 51°13.87 2°55.6 340.4 7.7 335 13
2003-06-23 06:38:53 51°13.88 2°55.6 340.3 7.8 335 13
2003-06-23 06:38:59 51°13.89 2°55.59 340.4 7.9 335 13.1
2003-06-23 06:39:05 51°13.9 2°55.58 340.9 7.9 336 13
2003-06-23 06:39:09 51°13.91 2°55.57 340.5 7.9 336 13.1
2003-06-23 06:39:13 51°13.92 2°55.57 339.8 8 334 13.2
2003-06-23 06:39:19 51°13.93 2°55.56 340.3 8 335 13.1
2003-06-23 06:39:25 51°13.94 2°55.55 340.8 8 336 13.2
2003-06-23 06:39:29 51°13.95 2°55.54 340 8 335 13.2
2003-06-23 06:39:33 51°13.96 2°55.54 339.6 8 335 13.1
2003-06-23 06:39:39 51°13.97 2°55.53 339.7 8 335 13.2
2003-06-23 06:39:45 51°13.98 2°55.52 340 8 336 13.1
2003-06-23 06:39:49 51°13.99 2°55.51 339.9 8.1 335 13
2003-06-23 06:39:53 51°14 2°55.51 339.7 8.1 335 13
2003-06-23 06:39:59 51°14.01 2°55.5 340.3 8 335 13.1
2003-06-23 06:40:05 51°14.02 2°55.49 340.6 8 336 13.2
2003-06-23 06:40:09 51°14.03 2°55.48 340.2 8 335 13.1
2003-06-23 06:40:13 51°14.04 2°55.48 340.1 8 335 13.1
2003-06-23 06:40:19 51°14.05 2°55.47 340.4 8 336 13
2003-06-23 06:40:25 51°14.06 2°55.46 340.5 8 336 12.8
2003-06-23 06:40:29 51°14.07 2°55.45 340.5 8 336 12.5
2003-06-23 06:40:33 51°14.08 2°55.45 341.1 8 336 12.9
2003-06-23 06:40:39 51°14.09 2°55.44 341.2 8.1 337 13
2003-06-23 06:40:45 51°14.1 2°55.43 341 8.2 337 13
2003-06-23 06:40:49 51°14.11 2°55.42 340.8 8.3 336 12.9
2003-06-23 06:40:53 51°14.12 2°55.42 340.8 8.3 336 13.1
2003-06-23 06:40:59 51°14.13 2°55.41 340 8.4 335 13
2003-06-23 06:41:05 51°14.15 2°55.4 338.5 8.5 334 13.2
2003-06-23 06:41:09 51°14.15 2°55.39 337.5 8.5 333 13.2
2003-06-23 06:41:13 51°14.16 2°55.39 336.7 8.5 333 13.2
2003-06-23 06:41:19 51°14.18 2°55.37 335.3 8.6 330 13.3
2003-06-23 06:41:25 51°14.19 2°55.36 333.6 8.6 329 13.3
2003-06-23 06:41:29 51°14.2 2°55.35 331.8 8.6 327 13.2
2003-06-23 06:41:33 51°14.2 2°55.35 330.1 8.7 325 13.2
2003-06-23 06:41:39 51°14.22 2°55.33 327.8 8.8 323 13.2
2003-06-23 06:41:45 51°14.23 2°55.32 325.5 8.9 320 13.2
2003-06-23 06:41:49 51°14.23 2°55.31 324.4 9 320 13.3
2003-06-23 06:41:53 51°14.24 2°55.3 323.9 9.1 319 13.2
2003-06-23 06:41:59 51°14.25 2°55.28 323 9.2 318 13.2
2003-06-23 06:42:05 51°14.26 2°55.26 321.3 9.3 315 13.2
2003-06-23 06:42:09 51°14.27 2°55.25 319.2 9.3 314 13.3
2003-06-23 06:42:13 51°14.28 2°55.24 317.1 9.4 312 13.1
2003-06-23 06:42:17 51°14.28 2°55.23 315.7 9.4 311 13.2
2003-06-23 06:42:25 51°14.3 2°55.2 315.1 9.5 310 13.1
2003-06-23 06:42:29 51°14.31 2°55.19 315.1 9.5 311 13.2
2003-06-23 06:42:33 51°14.31 2°55.18 315.1 9.5 310 13.3
2003-06-23 06:42:37 51°14.32 2°55.16 314.4 9.6 309 12.8
2003-06-23 06:42:45 51°14.33 2°55.14 313.4 9.9 308 13
2003-06-23 06:42:49 51°14.34 2°55.12 313.1 10.1 308 12.2
2003-06-23 06:42:53 51°14.35 2°55.11 314.8 10.3 310 12.3
2003-06-23 06:42:57 51°14.35 2°55.09 317.5 10.6 313 12.7
2003-06-23 06:43:05 51°14.37 2°55.07 321 10.8 318 12.8
2003-06-23 06:43:09 51°14.38 2°55.06 324.9 11.1 322 12.4
2003-06-23 06:43:13 51°14.39 2°55.04 328.3 11.3 326 12.4
2003-06-23 06:43:19 51°14.41 2°55.03 330.2 11.5 329 12.4
2003-06-23 06:43:25 51°14.42 2°55.01 331.1 11.7 331 12.2
2003-06-23 06:43:29 51°14.44 2°55 331.5 11.8 332 12
2003-06-23 06:43:33 51°14.45 2°54.99 332.5 12 333 11.9
2003-06-23 06:43:39 51°14.47 2°54.98 332.9 12.1 334 11.8
2003-06-23 06:43:45 51°14.48 2°54.97 332.9 12.3 333 11.7
2003-06-23 06:43:49 51°14.5 2°54.96 332.5 12.4 333 11.6
2003-06-23 06:43:53 51°14.51 2°54.95 331.2 12.4 332 11.6
2003-06-23 06:43:59 51°14.53 2°54.93 330.1 12.5 330 11.6
2003-06-23 06:44:05 51°14.54 2°54.91 329.9 12.6 330 11.5
2003-06-23 06:44:09 51°14.56 2°54.9 328.9 12.6 329 11.6
2003-06-23 06:44:13 51°14.57 2°54.89 328.2 12.6 329 11.5
2003-06-23 06:44:19 51°14.59 2°54.87 328.1 12.6 329 11.4
2003-06-23 06:44:25 51°14.61 2°54.85 328.6 12.7 329 11.5
2003-06-23 06:44:29 51°14.62 2°54.84 328.8 12.7 329 11.5
2003-06-23 06:44:33 51°14.63 2°54.83 327.3 12.7 329 11.4
2003-06-23 06:44:39 51°14.65 2°54.81 325.6 12.6 325 11.4
2003-06-23 06:44:45 51°14.66 2°54.79 324.8 12.6 326 11.4
2003-06-23 06:44:49 51°14.68 2°54.78 324.4 12.7 324 11.4
2003-06-23 06:44:53 51°14.69 2°54.77 324.7 12.7 325 11.3
2003-06-23 06:44:59 51°14.7 2°54.75 324.9 12.7 326 11.4
2003-06-23 06:45:05 51°14.72 2°54.73 324.6 12.6 325 11.4
2003-06-23 06:45:09 51°14.73 2°54.72 324.4 12.6 325 11.4
2003-06-23 06:45:13 51°14.74 2°54.7 324.4 12.6 325 11.2
2003-06-23 06:45:19 51°14.76 2°54.68 324.2 12.7 325 11.2
2003-06-23 06:45:25 51°14.78 2°54.67 324.4 12.6 326 11.3
2003-06-23 06:45:29 51°14.79 2°54.65 325 12.7 326 11.3
2003-06-23 06:45:33 51°14.8 2°54.64 325.2 12.7 326 11.2
2003-06-23 06:45:39 51°14.82 2°54.62 325.1 12.8 326 11.3
2003-06-23 06:45:43 51°14.83 2°54.61 324.6 12.8 326 11.3
2003-06-23 06:45:49 51°14.85 2°54.59 324.4 12.8 325 11.4
2003-06-23 06:45:53 51°14.86 2°54.58 324.4 12.8 326 11.3
2003-06-23 06:45:59 51°14.88 2°54.56 324.4 12.9 326 11.3
2003-06-23 06:46:05 51°14.9 2°54.54 324.8 12.9 326 11.4
2003-06-23 06:46:09 51°14.91 2°54.53 325 13 326 11.1
2003-06-23 06:46:13 51°14.92 2°54.51 325 13 326 11.1
2003-06-23 06:46:17 51°14.93 2°54.5 324.7 13 326 11
2003-06-23 06:46:25 51°14.96 2°54.47 324.5 13 326 10.9
2003-06-23 06:46:29 51°14.97 2°54.46 324.6 13 325 10.8
2003-06-23 06:46:33 51°14.98 2°54.45 324.3 13 324 10.7
2003-06-23 06:46:39 51°15 2°54.43 323.7 13 324 10.6
2003-06-23 06:46:45 51°15.01 2°54.41 323.1 13 322 10.6
2003-06-23 06:46:49 51°15.03 2°54.39 323.1 13 323 10.6
2003-06-23 06:46:53 51°15.04 2°54.38 324 13 323 10.6
2003-06-23 06:46:59 51°15.06 2°54.36 324.8 13 325 10.6
2003-06-23 06:47:05 51°15.07 2°54.34 325.1 13.1 325 10.7
2003-06-23 06:47:09 51°15.08 2°54.33 325.1 13.1 325 10.7
2003-06-23 06:47:13 51°15.1 2°54.31 325.1 13.1 325 10.8
2003-06-23 06:47:19 51°15.11 2°54.29 325.1 13.1 325 10.8
2003-06-23 06:47:25 51°15.13 2°54.27 325.1 13.2 326 10.8
2003-06-23 06:47:29 51°15.14 2°54.26 325.1 13.1 326 10.9
2003-06-23 06:47:33 51°15.16 2°54.25 325 13.1 325 10.9
2003-06-23 06:47:39 51°15.17 2°54.23 324.7 13.2 325 11
2003-06-23 06:47:45 51°15.19 2°54.21 325 13.2 325 11.1
2003-06-23 06:47:49 51°15.2 2°54.19 325 13.2 325 11.1
2003-06-23 06:47:53 51°15.22 2°54.18 324.9 13.2 325 11.1
2003-06-23 06:47:59 51°15.23 2°54.16 325.2 13.2 326 11.1
2003-06-23 06:48:05 51°15.25 2°54.14 325.4 13.2 326 11.3
2003-06-23 06:48:09 51°15.27 2°54.13 325.4 13.2 326 11.3
2003-06-23 06:48:13 51°15.28 2°54.12 325.1 13.2 326 11.4
2003-06-23 06:48:19 51°15.3 2°54.1 324.7 13.2 325 11.5
2003-06-23 06:48:25 51°15.31 2°54.08 324.9 13.2 326 11.5
2003-06-23 06:48:29 51°15.33 2°54.06 326.3 13.2 327 11.5
2003-06-23 06:48:33 51°15.34 2°54.05 327.3 13.2 328 11.6
2003-06-23 06:48:37 51°15.35 2°54.04 328.7 13.2 329 11.7
2003-06-23 06:48:45 51°15.38 2°54.02 329.6 13.3 330 11.8
2003-06-23 06:48:49 51°15.39 2°54 330.1 13.3 330 11.8
2003-06-23 06:48:53 51°15.4 2°53.99 330.8 13.3 331 11.8
2003-06-23 06:48:59 51°15.42 2°53.98 330.8 13.4 331 12
2003-06-23 06:49:05 51°15.44 2°53.96 330.6 13.4 331 12
2003-06-23 06:49:09 51°15.45 2°53.95 330.2 13.4 330 12
2003-06-23 06:49:13 51°15.47 2°53.93 330.2 13.4 331 12.1
2003-06-23 06:49:19 51°15.49 2°53.92 330.7 13.4 331 12.2
2003-06-23 06:49:25 51°15.51 2°53.9 330.7 13.5 331 12.3
2003-06-23 06:49:29 51°15.52 2°53.89 330.6 13.4 331 12.4
2003-06-23 06:49:33 51°15.53 2°53.88 330.5 13.5 331 12.4
2003-06-23 06:49:39 51°15.55 2°53.86 330.3 13.4 331 12.6
2003-06-23 06:49:45 51°15.57 2°53.84 330.3 13.5 331 12.6
2003-06-23 06:49:49 51°15.58 2°53.83 330.4 13.5 331 12.6
2003-06-23 06:49:53 51°15.6 2°53.82 330.8 13.5 331 12.7
2003-06-23 06:49:59 51°15.62 2°53.8 330.6 13.4 331 12.7
2003-06-23 06:50:05 51°15.64 2°53.78 330.2 13.4 331 12.8
2003-06-23 06:50:09 51°15.65 2°53.77 330.2 13.5 331 12.9
2003-06-23 06:50:13 51°15.66 2°53.76 330 13.4 330 13
2003-06-23 06:50:19 51°15.68 2°53.74 329.8 13.5 331 13
2003-06-23 06:50:25 51°15.7 2°53.72 330.2 13.5 331 13.1
2003-06-23 06:50:29 51°15.72 2°53.71 330.4 13.6 331 13
2003-06-23 06:50:33 51°15.73 2°53.7 330.5 13.6 331 13.2
2003-06-23 06:50:39 51°15.75 2°53.68 330.4 13.5 331 13.2
2003-06-23 06:50:45 51°15.77 2°53.67 330.2 13.6 331 13.3
2003-06-23 06:50:49 51°15.78 2°53.65 329.8 13.6 330 13.4
2003-06-23 06:50:53 51°15.79 2°53.64 329.8 13.6 330 13.4
2003-06-23 06:50:59 51°15.81 2°53.62 329.9 13.6 330 13.5
2003-06-23 06:51:05 51°15.83 2°53.61 330.2 13.6 331 13.5
2003-06-23 06:51:09 51°15.85 2°53.6 330.2 13.7 331 13.5
2003-06-23 06:51:13 51°15.86 2°53.58 330.3 13.7 331 13.6
2003-06-23 06:51:19 51°15.88 2°53.57 330.3 13.7 331 13.6
2003-06-23 06:51:25 51°15.9 2°53.55 330.4 13.7 331 13.6
2003-06-23 06:51:29 51°15.91 2°53.54 330.5 13.7 331 13.7
2003-06-23 06:51:33 51°15.93 2°53.52 330.2 13.7 330 13.7
2003-06-23 06:51:39 51°15.95 2°53.51 330.1 13.7 331 13.8
2003-06-23 06:51:45 51°15.97 2°53.49 330 13.7 330 13.8
2003-06-23 06:51:49 51°15.98 2°53.48 330.2 13.7 331 13.8
2003-06-23 06:51:53 51°15.99 2°53.47 330.2 13.6 331 13.8
2003-06-23 06:51:59 51°16.01 2°53.45 330.6 13.7 331 13.9
2003-06-23 06:52:05 51°16.03 2°53.43 330.8 13.7 331 13.8
2003-06-23 06:52:09 51°16.04 2°53.42 330.6 13.7 331 13.9
2003-06-23 06:52:13 51°16.06 2°53.41 330.2 13.7 330 13.9
2003-06-23 06:52:19 51°16.08 2°53.39 330.3 13.8 331 13.8
2003-06-23 06:52:25 51°16.1 2°53.37 330.7 13.8 331 13.9
2003-06-23 06:52:29 51°16.11 2°53.36 330.7 13.8 331 13.9
2003-06-23 06:52:33 51°16.12 2°53.35 330.3 13.8 330 14
2003-06-23 06:52:39 51°16.14 2°53.33 330.3 13.8 330 13.9
2003-06-23 06:52:45 51°16.16 2°53.31 330.3 13.8 331 14
2003-06-23 06:52:49 51°16.18 2°53.3 330.5 13.8 331 14
2003-06-23 06:52:53 51°16.19 2°53.29 330.8 13.8 331 14.2
2003-06-23 06:52:59 51°16.21 2°53.27 330.9 13.8 331 14.2
2003-06-23 06:53:05 51°16.23 2°53.25 330.9 13.8 331 14.2
2003-06-23 06:53:09 51°16.25 2°53.24 330.8 13.8 331 14.3
2003-06-23 06:53:13 51°16.26 2°53.23 330.6 13.8 331 14.2
2003-06-23 06:53:19 51°16.28 2°53.21 330.3 13.7 330 14.3
2003-06-23 06:53:25 51°16.3 2°53.19 330 13.7 330 14.3
2003-06-23 06:53:29 51°16.31 2°53.18 330.3 13.7 331 14.3
2003-06-23 06:53:33 51°16.32 2°53.17 330.5 13.8 331 14.3
2003-06-23 06:53:39 51°16.34 2°53.15 330.8 13.7 330 14.2
2003-06-23 06:53:45 51°16.37 2°53.13 332.3 13.8 333 14.3
2003-06-23 06:53:49 51°16.38 2°53.12 333.3 13.8 333 14.3
2003-06-23 06:53:53 51°16.39 2°53.11 334.4 13.8 334 14.2
2003-06-23 06:53:59 51°16.41 2°53.1 335.1 13.8 335 14.4
2003-06-23 06:54:05 51°16.43 2°53.08 335.6 13.8 336 14.2
2003-06-23 06:54:09 51°16.45 2°53.07 336.1 13.8 336 14.2
2003-06-23 06:54:13 51°16.46 2°53.06 336.1 13.8 336 14.2
2003-06-23 06:54:19 51°16.48 2°53.05 335.8 13.8 336 14.1
2003-06-23 06:54:25 51°16.5 2°53.03 335.5 13.8 335 14.1
2003-06-23 06:54:29 51°16.52 2°53.02 335.4 13.9 335 13.9
2003-06-23 06:54:33 51°16.53 2°53.01 335.6 13.9 335 13.8
2003-06-23 06:54:39 51°16.55 2°53 336 13.9 336 13.7
2003-06-23 06:54:45 51°16.57 2°52.98 336.1 13.9 336 13.8
2003-06-23 06:54:49 51°16.59 2°52.97 335.9 13.9 336 13.6
2003-06-23 06:54:53 51°16.6 2°52.96 335.6 13.9 335 13.5
2003-06-23 06:54:59 51°16.62 2°52.94 335.5 14 335 13.7
2003-06-23 06:55:05 51°16.64 2°52.93 335.4 14 335 13.4
2003-06-23 06:55:09 51°16.66 2°52.92 335.7 14 336 13.3
2003-06-23 06:55:13 51°16.67 2°52.91 335.9 14 336 13.2
2003-06-23 06:55:19 51°16.69 2°52.89 335.9 14 336 13.1
2003-06-23 06:55:25 51°16.71 2°52.88 335.5 14 335 12.9
2003-06-23 06:55:29 51°16.73 2°52.87 335.3 14 335 12.7
2003-06-23 06:55:33 51°16.74 2°52.86 335.2 14 335 12.4
2003-06-23 06:55:39 51°16.76 2°52.84 335.3 14 335 12
2003-06-23 06:55:45 51°16.79 2°52.82 335.4 14 335 11.6
2003-06-23 06:55:49 51°16.8 2°52.81 335.7 14 336 11.5
2003-06-23 06:55:53 51°16.81 2°52.8 335.7 14 335 11.6
2003-06-23 06:55:59 51°16.83 2°52.79 335.5 14 335 11.7
2003-06-23 06:56:05 51°16.86 2°52.77 335.5 14 335 11.2
2003-06-23 06:56:09 51°16.87 2°52.76 335.8 14.1 336 11.4
2003-06-23 06:56:13 51°16.88 2°52.75 335.9 14.1 336 11.4
2003-06-23 06:56:19 51°16.91 2°52.74 335.9 14.1 335 11.5
2003-06-23 06:56:25 51°16.93 2°52.72 335.5 14.1 335 11.6
2003-06-23 06:56:29 51°16.94 2°52.71 335.3 14.1 335 11.7
2003-06-23 06:56:33 51°16.96 2°52.7 335.3 14.1 335 11.8
2003-06-23 06:56:39 51°16.98 2°52.68 335.7 14.1 336 11.9
2003-06-23 06:56:45 51°17 2°52.67 335.7 14.2 335 12
2003-06-23 06:56:49 51°17.01 2°52.66 335.4 14.2 335 12.2
2003-06-23 06:56:53 51°17.03 2°52.65 334.9 14.1 335 12
2003-06-23 06:56:59 51°17.05 2°52.63 335.1 14.1 335 12
2003-06-23 06:57:05 51°17.07 2°52.62 335.5 14.1 336 11.8
2003-06-23 06:57:09 51°17.08 2°52.61 335.7 14.1 336 11.5
2003-06-23 06:57:13 51°17.1 2°52.6 335.7 14 336 11.5
2003-06-23 06:57:19 51°17.12 2°52.58 335.3 14 335 11.5
2003-06-23 06:57:25 51°17.14 2°52.56 335.1 14 335 11.6
2003-06-23 06:57:29 51°17.15 2°52.55 334.7 14 335 12
2003-06-23 06:57:33 51°17.17 2°52.54 334.7 14 335 11.8
2003-06-23 06:57:39 51°17.19 2°52.53 335.3 14 335 11.9
2003-06-23 06:57:45 51°17.21 2°52.51 335.6 14 335 12
2003-06-23 06:57:49 51°17.22 2°52.5 335.7 14 336 12.1
2003-06-23 06:57:53 51°17.24 2°52.49 335.4 14 335 11.9
2003-06-23 06:57:59 51°17.26 2°52.48 335.3 14 335 12.2
2003-06-23 06:58:05 51°17.28 2°52.46 335.3 14 335 12
2003-06-23 06:58:09 51°17.29 2°52.45 335.1 14 335 12.2
2003-06-23 06:58:13 51°17.31 2°52.44 335 14 335 12.2
2003-06-23 06:58:19 51°17.33 2°52.42 335 14 335 12.4
2003-06-23 06:58:25 51°17.35 2°52.41 335 14 335 12.2
2003-06-23 06:58:29 51°17.37 2°52.4 335.3 14 336 12.2
2003-06-23 06:58:33 51°17.38 2°52.39 335.6 14 336 12.4
2003-06-23 06:58:39 51°17.4 2°52.37 335.5 14 335 12.5
2003-06-23 06:58:45 51°17.42 2°52.36 335.4 14 335 12.4
2003-06-23 06:58:49 51°17.44 2°52.35 335.3 14 335 12.4
2003-06-23 06:58:53 51°17.45 2°52.34 335.3 14 335 12.6
2003-06-23 06:58:59 51°17.47 2°52.32 335.3 13.9 335 12.4
2003-06-23 06:59:05 51°17.49 2°52.31 335.3 13.9 335 12.5
2003-06-23 06:59:09 51°17.51 2°52.3 335.5 13.9 336 12.5
2003-06-23 06:59:13 51°17.52 2°52.29 335.7 14 335 12.6
2003-06-23 06:59:19 51°17.54 2°52.27 335.5 13.9 335 12.4
2003-06-23 06:59:25 51°17.56 2°52.26 335.3 13.9 335 12.6
2003-06-23 06:59:29 51°17.58 2°52.25 335.2 13.9 335 12.4
2003-06-23 06:59:33 51°17.59 2°52.23 335.4 13.9 335 12.5
2003-06-23 06:59:39 51°17.61 2°52.22 335.6 13.9 335 12.5
2003-06-23 06:59:45 51°17.63 2°52.2 335.6 13.9 336 12.6
2003-06-23 06:59:49 51°17.65 2°52.19 335.7 13.9 336 12.5
2003-06-23 06:59:53 51°17.66 2°52.18 335.7 13.9 336 12.5
2003-06-23 06:59:59 51°17.68 2°52.17 335.6 13.9 335 12.3
2003-06-23 07:00:05 51°17.7 2°52.15 335.4 13.9 335 12.6
2003-06-23 07:00:09 51°17.72 2°52.14 335.4 13.9 335 12.5
2003-06-23 07:00:13 51°17.73 2°52.13 335.3 13.9 335 12.4
2003-06-23 07:00:19 51°17.75 2°52.12 335.3 13.9 335 12.5
2003-06-23 07:00:25 51°17.77 2°52.1 335.6 13.9 335 12.5
2003-06-23 07:00:29 51°17.79 2°52.09 335.4 13.9 335 12.5
2003-06-23 07:00:33 51°17.8 2°52.08 335.3 13.8 335 12.3
2003-06-23 07:00:39 51°17.82 2°52.06 335.6 13.9 335 12.5
2003-06-23 07:00:45 51°17.84 2°52.05 335.8 13.9 335 12.3
2003-06-23 07:00:49 51°17.86 2°52.04 335.5 13.9 335 12.4
2003-06-23 07:00:53 51°17.87 2°52.03 335.2 13.9 335 12.5
2003-06-23 07:00:59 51°17.89 2°52.01 335.3 13.9 335 12.5
2003-06-23 07:01:05 51°17.91 2°52 335.3 13.8 334 12.5
2003-06-23 07:01:09 51°17.93 2°51.99 333.3 13.8 333 12.5
2003-06-23 07:01:13 51°17.94 2°51.97 328.8 13.7 328 12.5
2003-06-23 07:01:19 51°17.96 2°51.95 323.7 13.5 323 12.6
2003-06-23 07:01:25 51°17.97 2°51.93 319.3 13.3 317 12.5
2003-06-23 07:01:29 51°17.98 2°51.91 316.3 13.3 317 12.5
2003-06-23 07:01:33 51°17.99 2°51.9 314.2 13.3 314 12.7
2003-06-23 07:01:39 51°18.01 2°51.87 312.5 13.2 313 12.7
2003-06-23 07:01:45 51°18.02 2°51.84 311.2 13.3 311 12.7
2003-06-23 07:01:49 51°18.03 2°51.82 310.4 13.3 310 12.8
2003-06-23 07:01:53 51°18.04 2°51.81 309.8 13.3 310 12.7
2003-06-23 07:01:59 51°18.06 2°51.78 309.5 13.4 309 12.8
2003-06-23 07:02:05 51°18.07 2°51.75 309.1 13.3 308 12.9
2003-06-23 07:02:09 51°18.08 2°51.73 308.7 13.3 309 12.9
2003-06-23 07:02:13 51°18.09 2°51.71 308.9 13.4 308 13.1
2003-06-23 07:02:19 51°18.1 2°51.69 309.5 13.4 309 13.1
2003-06-23 07:02:25 51°18.12 2°51.66 309.8 13.4 309 13.2
2003-06-23 07:02:29 51°18.13 2°51.64 309.8 13.4 310 13.3
2003-06-23 07:02:33 51°18.14 2°51.62 309.5 13.4 310 13.4
2003-06-23 07:02:39 51°18.15 2°51.6 309.3 13.5 309 13.4
2003-06-23 07:02:45 51°18.16 2°51.57 309.5 13.5 309 13.5
2003-06-23 07:02:49 51°18.17 2°51.55 309.9 13.5 310 13.6
2003-06-23 07:02:53 51°18.18 2°51.53 309.6 13.5 310 13.7
2003-06-23 07:02:59 51°18.2 2°51.5 309.5 13.5 310 13.7
2003-06-23 07:03:05 51°18.21 2°51.48 309.4 13.5 310 13.9
2003-06-23 07:03:09 51°18.22 2°51.46 309.6 13.5 310 14.1
2003-06-23 07:03:13 51°18.23 2°51.44 309.8 13.5 310 14.1
2003-06-23 07:03:19 51°18.25 2°51.41 309.7 13.5 310 14.2
2003-06-23 07:03:25 51°18.26 2°51.38 309.9 13.5 310 14.4
2003-06-23 07:03:29 51°18.27 2°51.37 309.7 13.4 310 14.5
2003-06-23 07:03:33 51°18.28 2°51.35 309.4 13.5 310 14.5
2003-06-23 07:03:39 51°18.29 2°51.32 309.4 13.5 310 14.7
2003-06-23 07:03:45 51°18.31 2°51.29 309.7 13.5 311 14.7
2003-06-23 07:03:49 51°18.32 2°51.28 309.8 13.5 310 14.8
2003-06-23 07:03:53 51°18.33 2°51.26 309.7 13.5 311 14.9
2003-06-23 07:03:59 51°18.34 2°51.23 309.7 13.5 310 15
2003-06-23 07:04:05 51°18.36 2°51.2 309.5 13.5 310 15.1
2003-06-23 07:04:09 51°18.37 2°51.18 309.7 13.5 311 15.2
2003-06-23 07:04:13 51°18.38 2°51.17 309.8 13.6 311 15.3
2003-06-23 07:04:19 51°18.39 2°51.14 309.8 13.5 310 15.4
2003-06-23 07:04:25 51°18.41 2°51.11 309.4 13.5 310 15.5
2003-06-23 07:04:29 51°18.42 2°51.09 309.3 13.4 310 15.5
2003-06-23 07:04:33 51°18.43 2°51.08 309.5 13.4 311 15.6
2003-06-23 07:04:39 51°18.44 2°51.05 309.9 13.3 311 15.6
2003-06-23 07:04:45 51°18.45 2°51.02 309.9 13.2 311 15.7
2003-06-23 07:04:49 51°18.46 2°51.01 309.9 13.2 311 15.7
2003-06-23 07:04:53 51°18.47 2°50.99 310 13.2 311 15.8
2003-06-23 07:04:59 51°18.49 2°50.96 310.2 13.1 312 15.8
2003-06-23 07:05:05 51°18.5 2°50.94 309.9 13.1 311 15.9
2003-06-23 07:05:09 51°18.51 2°50.92 309.8 13 311 16
2003-06-23 07:05:13 51°18.52 2°50.9 309.9 13 311 16.1
2003-06-23 07:05:19 51°18.54 2°50.88 310.2 13 312 16.1
2003-06-23 07:05:25 51°18.55 2°50.85 310.2 13 311 16.1
2003-06-23 07:05:29 51°18.56 2°50.83 310 13 311 16.2
2003-06-23 07:05:33 51°18.57 2°50.82 310 13 312 16.2
2003-06-23 07:05:39 51°18.58 2°50.79 310.1 13 312 16.2
2003-06-23 07:05:45 51°18.6 2°50.76 310.1 13 312 16.3
2003-06-23 07:05:49 51°18.61 2°50.75 310.3 13 312 16.4
2003-06-23 07:05:53 51°18.62 2°50.73 310.1 13.1 312 16.4
2003-06-23 07:05:59 51°18.63 2°50.71 310 13 312 16.3
2003-06-23 07:06:05 51°18.65 2°50.68 309.9 13.1 312 16.4
2003-06-23 07:06:09 51°18.65 2°50.66 310.2 13 312 16.4
2003-06-23 07:06:13 51°18.66 2°50.64 310.2 13 312 16.5
2003-06-23 07:06:19 51°18.68 2°50.62 310.3 13.1 312 16.5
2003-06-23 07:06:25 51°18.69 2°50.59 310.2 13 312 16.5
2003-06-23 07:06:29 51°18.7 2°50.58 310.1 13 312 16.4
2003-06-23 07:06:33 51°18.71 2°50.56 310 13.1 312 16.4
2003-06-23 07:06:39 51°18.73 2°50.53 310.2 13.1 312 16.6
2003-06-23 07:06:45 51°18.74 2°50.51 310.4 13.1 312 16.5
2003-06-23 07:06:49 51°18.75 2°50.49 310.5 13.1 312 16.4
2003-06-23 07:06:53 51°18.76 2°50.47 310.4 13.1 312 16.4
2003-06-23 07:06:59 51°18.78 2°50.45 309.6 13 310 16.4
2003-06-23 07:07:05 51°18.79 2°50.42 309 12.9 309 16.1
2003-06-23 07:07:09 51°18.8 2°50.4 308.7 12.9 309 16.2
2003-06-23 07:07:13 51°18.81 2°50.38 308.9 12.9 309 16.2
2003-06-23 07:07:19 51°18.82 2°50.36 309.6 12.8 310 16.1
2003-06-23 07:07:25 51°18.83 2°50.33 310.2 13 311 16.1
2003-06-23 07:07:29 51°18.84 2°50.31 310.3 12.9 310 16
2003-06-23 07:07:33 51°18.85 2°50.3 310.6 12.8 311 15.8
2003-06-23 07:07:39 51°18.87 2°50.27 310.7 12.9 311 15.6
2003-06-23 07:07:45 51°18.88 2°50.24 310.5 12.9 310 15.5
2003-06-23 07:07:49 51°18.89 2°50.23 310.4 12.9 310 15.1
2003-06-23 07:07:53 51°18.9 2°50.21 310.2 12.9 310 15.1
2003-06-23 07:07:59 51°18.91 2°50.18 310.5 12.9 310 15.1
2003-06-23 07:08:05 51°18.93 2°50.16 310.6 12.8 311 14.9
2003-06-23 07:08:09 51°18.94 2°50.14 310.2 12.9 310 14.6
2003-06-23 07:08:13 51°18.95 2°50.12 310.4 13 311 14.7
2003-06-23 07:08:19 51°18.96 2°50.1 310.6 12.9 311 14.5
2003-06-23 07:08:25 51°18.97 2°50.07 310.3 12.9 310 14.2
2003-06-23 07:08:29 51°18.98 2°50.05 310.1 12.9 310 14.2
2003-06-23 07:08:33 51°18.99 2°50.03 310.2 12.8 310 14.1
2003-06-23 07:08:39 51°19.01 2°50.01 310.2 12.8 310 14
2003-06-23 07:08:45 51°19.02 2°49.98 310.4 12.9 310 14
2003-06-23 07:08:49 51°19.03 2°49.97 310.2 12.8 310 13.6
2003-06-23 07:08:53 51°19.04 2°49.95 310.3 12.6 310 13.4
2003-06-23 07:08:59 51°19.05 2°49.92 310.1 12.4 310 13.4
2003-06-23 07:09:05 51°19.06 2°49.9 309.9 12.2 310 13.1
2003-06-23 07:09:09 51°19.07 2°49.88 310 12.1 310 12.9
2003-06-23 07:09:13 51°19.08 2°49.86 310 12.1 310 13
2003-06-23 07:09:19 51°19.09 2°49.84 310.3 12 311 13
2003-06-23 07:09:25 51°19.11 2°49.82 310.8 12.1 311 13
2003-06-23 07:09:29 51°19.12 2°49.8 311 12.1 312 13.1
2003-06-23 07:09:33 51°19.13 2°49.78 310.9 12.1 311 13.2
2003-06-23 07:09:39 51°19.14 2°49.76 310.5 12.2 311 13.6
2003-06-23 07:09:45 51°19.15 2°49.74 310.5 12.2 311 13.8
2003-06-23 07:09:49 51°19.16 2°49.72 310.2 12.3 311 14.1
2003-06-23 07:09:53 51°19.17 2°49.7 309.9 12.3 311 14.2
2003-06-23 07:09:59 51°19.18 2°49.68 309.8 12.3 310 14.3
2003-06-23 07:10:05 51°19.2 2°49.65 310.2 12.3 311 14.3
2003-06-23 07:10:09 51°19.21 2°49.64 310.7 12.3 312 14.2
2003-06-23 07:10:13 51°19.21 2°49.62 310.8 12.3 311 14.1
2003-06-23 07:10:19 51°19.23 2°49.6 310.8 12.3 312 14.5
2003-06-23 07:10:25 51°19.24 2°49.57 310.6 12.3 311 14.5
2003-06-23 07:10:29 51°19.25 2°49.55 310.5 12.3 311 14.8
2003-06-23 07:10:33 51°19.26 2°49.54 310.3 12.3 311 15.1
2003-06-23 07:10:39 51°19.27 2°49.51 310.5 12.3 311 15.4
2003-06-23 07:10:45 51°19.29 2°49.49 310.5 12.4 311 15.6
2003-06-23 07:10:49 51°19.3 2°49.47 310.2 12.4 311 15.7
2003-06-23 07:10:53 51°19.3 2°49.46 310.4 12.3 311 15.8
2003-06-23 07:10:59 51°19.32 2°49.43 310.3 12.4 311 15.9
2003-06-23 07:11:05 51°19.33 2°49.41 310.5 12.4 311 16
2003-06-23 07:11:09 51°19.34 2°49.39 310.3 12.4 311 16.2
2003-06-23 07:11:13 51°19.35 2°49.37 310.1 12.4 311 16.3
2003-06-23 07:11:19 51°19.36 2°49.35 310 12.4 311 16.4
2003-06-23 07:11:25 51°19.38 2°49.32 310.6 12.4 312 16.4
2003-06-23 07:11:29 51°19.39 2°49.31 310.6 12.4 311 16.5
2003-06-23 07:11:33 51°19.4 2°49.29 310.5 12.4 312 16.6
2003-06-23 07:11:39 51°19.41 2°49.27 310.2 12.3 311 16.3
2003-06-23 07:11:45 51°19.42 2°49.24 309.9 12.4 311 16.3
2003-06-23 07:11:49 51°19.43 2°49.22 310 12.4 311 16.4
2003-06-23 07:11:53 51°19.44 2°49.21 310.1 12.3 311 16.6
2003-06-23 07:11:59 51°19.45 2°49.18 310.5 12.4 312 16.9
2003-06-23 07:12:05 51°19.47 2°49.16 310.6 12.4 312 17.2
2003-06-23 07:12:09 51°19.48 2°49.14 310.2 12.3 311 17.7
2003-06-23 07:12:13 51°19.49 2°49.12 308 12.3 310 18
2003-06-23 07:12:19 51°19.5 2°49.1 303.6 12.1 304 18.3
2003-06-23 07:12:25 51°19.51 2°49.07 298.9 11.9 298 18.5
2003-06-23 07:12:29 51°19.51 2°49.05 294.6 11.8 295 18.7
2003-06-23 07:12:33 51°19.52 2°49.03 291.7 11.8 293 18.8
2003-06-23 07:12:39 51°19.52 2°49 289.7 11.9 291 18.9
2003-06-23 07:12:45 51°19.53 2°48.97 287.4 11.8 287 19.1
2003-06-23 07:12:49 51°19.53 2°48.95 286.5 11.9 287 19.3
2003-06-23 07:12:53 51°19.54 2°48.93 285.4 12 287 19.3
2003-06-23 07:12:57 51°19.54 2°48.91 284.7 12.1 285 19.4
2003-06-23 07:13:05 51°19.55 2°48.87 284.7 12.2 285 19.5
2003-06-23 07:13:09 51°19.55 2°48.85 284.7 12.2 285 19.8
2003-06-23 07:13:13 51°19.56 2°48.83 284.6 12.2 285 19.8
2003-06-23 07:13:19 51°19.56 2°48.8 284.6 12.3 285 20
2003-06-23 07:13:25 51°19.57 2°48.77 284.3 12.3 285 20
2003-06-23 07:13:29 51°19.57 2°48.74 284.4 12.3 285 20.1
2003-06-23 07:13:33 51°19.57 2°48.72 284.7 12.3 286 20.3
2003-06-23 07:13:39 51°19.58 2°48.69 284.4 12.3 284 20.5
2003-06-23 07:13:45 51°19.58 2°48.66 284 12.3 285 20.7
2003-06-23 07:13:49 51°19.59 2°48.64 284.4 12.3 285 20.8
2003-06-23 07:13:53 51°19.59 2°48.62 284.6 12.4 286 21
2003-06-23 07:13:59 51°19.6 2°48.59 284.9 12.4 286 21.2
2003-06-23 07:14:05 51°19.6 2°48.55 284.4 12.4 284 21.4
2003-06-23 07:14:09 51°19.6 2°48.53 284.5 12.5 285 21.5
2003-06-23 07:14:13 51°19.61 2°48.51 284.9 12.5 285 21.7
2003-06-23 07:14:17 51°19.61 2°48.49 285.1 12.5 286 21.9
2003-06-23 07:14:25 51°19.62 2°48.45 284.6 12.5 285 22.1
2003-06-23 07:14:29 51°19.62 2°48.43 284.9 12.6 286 22.3
2003-06-23 07:14:33 51°19.63 2°48.41 284.9 12.5 285 22.5
2003-06-23 07:14:39 51°19.63 2°48.37 284.3 12.6 285 22.6
2003-06-23 07:14:45 51°19.64 2°48.34 284.6 12.7 285 22.8
2003-06-23 07:14:49 51°19.64 2°48.32 284.8 12.7 286 22.9
2003-06-23 07:14:53 51°19.65 2°48.3 284.3 12.6 284 23.2
2003-06-23 07:14:59 51°19.65 2°48.27 284.5 12.8 286 23.3
2003-06-23 07:15:05 51°19.66 2°48.23 284.9 12.8 285 23.4
2003-06-23 07:15:09 51°19.66 2°48.21 284.5 12.7 285 23.5
2003-06-23 07:15:13 51°19.66 2°48.19 284.6 12.8 285 23.6
2003-06-23 07:15:19 51°19.67 2°48.16 285.2 12.8 286 23.7
2003-06-23 07:15:25 51°19.67 2°48.12 284.8 12.8 284 23.8
2003-06-23 07:15:29 51°19.68 2°48.1 284.8 12.8 285 23.9
2003-06-23 07:15:33 51°19.68 2°48.08 284.6 12.9 285 24
2003-06-23 07:15:39 51°19.69 2°48.05 284.7 12.9 285 23.9
2003-06-23 07:15:45 51°19.69 2°48.01 284.9 12.9 286 23.9
2003-06-23 07:15:49 51°19.7 2°47.99 285.1 12.9 286 24
2003-06-23 07:15:53 51°19.7 2°47.97 285.2 13 286 24
2003-06-23 07:15:59 51°19.71 2°47.94 285.4 12.9 286 24.1
2003-06-23 07:16:05 51°19.71 2°47.9 285.4 12.9 286 24
2003-06-23 07:16:09 51°19.72 2°47.88 284.9 12.9 286 23.9
2003-06-23 07:16:13 51°19.72 2°47.86 284.9 12.9 286 24.1
2003-06-23 07:16:17 51°19.73 2°47.84 285.2 13 286 24.1
2003-06-23 07:16:25 51°19.73 2°47.79 285.5 12.9 287 24
2003-06-23 07:16:29 51°19.74 2°47.77 284.7 12.8 286 24
2003-06-23 07:16:33 51°19.74 2°47.75 284.7 12.9 286 24
2003-06-23 07:16:39 51°19.75 2°47.72 284.8 12.9 286 24
2003-06-23 07:16:45 51°19.75 2°47.68 285 12.9 286 24
2003-06-23 07:16:49 51°19.76 2°47.66 284.9 12.9 286 23.9
2003-06-23 07:16:53 51°19.76 2°47.64 284.9 12.9 286 23.8
2003-06-23 07:16:59 51°19.77 2°47.61 285.3 12.9 286 23.6
2003-06-23 07:17:05 51°19.77 2°47.57 285.2 12.9 286 23.6
2003-06-23 07:17:09 51°19.78 2°47.55 284.9 12.9 286 23.7
2003-06-23 07:17:13 51°19.78 2°47.53 284.9 12.9 286 23.7
2003-06-23 07:17:17 51°19.79 2°47.51 285.2 12.9 287 23.6
2003-06-23 07:17:25 51°19.79 2°47.46 285.2 12.9 286 23.8
2003-06-23 07:17:29 51°19.8 2°47.44 284.5 12.9 286 23.7
2003-06-23 07:17:33 51°19.8 2°47.42 284.5 12.9 285 23.6
2003-06-23 07:17:39 51°19.81 2°47.39 284.9 12.9 287 23.5
2003-06-23 07:17:45 51°19.81 2°47.35 285.2 12.9 286 23.6
2003-06-23 07:17:49 51°19.82 2°47.33 285.2 12.9 287 23.4
2003-06-23 07:17:53 51°19.82 2°47.31 285 12.9 286 23.3
2003-06-23 07:17:59 51°19.83 2°47.28 284.9 12.9 286 23.2
2003-06-23 07:18:05 51°19.83 2°47.24 285 12.9 287 23.1
2003-06-23 07:18:09 51°19.84 2°47.22 285.2 12.9 286 23.1
2003-06-23 07:18:13 51°19.84 2°47.2 285.1 12.9 286 23
2003-06-23 07:18:19 51°19.85 2°47.17 284.1 13 286 22.7
2003-06-23 07:18:25 51°19.85 2°47.13 282.7 12.9 283 22.7
2003-06-23 07:18:29 51°19.86 2°47.11 281.5 12.9 283 22.6
2003-06-23 07:18:33 51°19.86 2°47.09 280.8 12.9 282 22.7
2003-06-23 07:18:39 51°19.86 2°47.06 280.3 12.9 281 22.5
2003-06-23 07:18:45 51°19.87 2°47.02 280 12.9 280 22.6
2003-06-23 07:18:49 51°19.87 2°47 278.6 12.8 277 22.4
2003-06-23 07:18:53 51°19.87 2°46.98 278.2 12.8 278 22
2003-06-23 07:18:57 51°19.87 2°46.95 279 12.8 278 21.5
2003-06-23 07:19:05 51°19.87 2°46.91 279.5 12.8 278 21.9
2003-06-23 07:19:09 51°19.88 2°46.89 279.5 12.8 278 21.2
2003-06-23 07:19:13 51°19.88 2°46.86 279.7 12.8 278 21
2003-06-23 07:19:19 51°19.88 2°46.83 280.2 12.7 280 21.3
2003-06-23 07:19:25 51°19.89 2°46.8 280.5 12.7 279 21.2
2003-06-23 07:19:29 51°19.89 2°46.78 280.7 12.7 280 20.6
2003-06-23 07:19:33 51°19.89 2°46.75 279.7 12.6 278 20.2
2003-06-23 07:19:39 51°19.89 2°46.72 279.6 12.7 278 20.5
2003-06-23 07:19:45 51°19.9 2°46.69 279.8 12.7 278 20.2
2003-06-23 07:19:49 51°19.9 2°46.67 280.1 12.7 278 19.6
2003-06-23 07:19:53 51°19.9 2°46.64 280.6 12.7 280 19
2003-06-23 07:19:59 51°19.9 2°46.61 280.3 12.6 279 19.8
2003-06-23 07:20:05 51°19.91 2°46.58 280.1 12.6 278 18.7
2003-06-23 07:20:09 51°19.91 2°46.55 280 12.6 278 18.1
2003-06-23 07:20:13 51°19.91 2°46.53 280 12.6 279 18.9
2003-06-23 07:20:19 51°19.91 2°46.5 280 12.6 279 17.4
2003-06-23 07:20:25 51°19.92 2°46.47 280.3 12.6 278 17.8
2003-06-23 07:20:29 51°19.92 2°46.44 280.2 12.6 279 15.8
2003-06-23 07:20:33 51°19.92 2°46.42 280.1 12.5 279 17.4
2003-06-23 07:20:39 51°19.92 2°46.39 279.8 12.6 278 18.1
2003-06-23 07:20:45 51°19.93 2°46.36 280.1 12.6 279 17.9
2003-06-23 07:20:49 51°19.93 2°46.33 280 12.6 278 17.7
2003-06-23 07:20:53 51°19.93 2°46.31 280 12.5 279 15.1
2003-06-23 07:20:59 51°19.93 2°46.28 279.6 12.5 278 17.1
2003-06-23 07:21:05 51°19.94 2°46.25 280.3 12.6 279 17
2003-06-23 07:21:09 51°19.94 2°46.22 280.3 12.5 280 15.9
2003-06-23 07:21:13 51°19.94 2°46.2 280.2 12.5 279 15.1
2003-06-23 07:21:17 51°19.94 2°46.18 279.9 12.5 279 14.8
2003-06-23 07:21:25 51°19.95 2°46.14 280.2 12.4 280 15.4
2003-06-23 07:21:29 51°19.95 2°46.12 280.6 12.4 279 15
2003-06-23 07:21:33 51°19.95 2°46.09 280.6 12.4 280 16.3
2003-06-23 07:21:39 51°19.96 2°46.06 280.6 12.4 280 15.6
2003-06-23 07:21:45 51°19.96 2°46.03 280.2 12.4 279 15.7
2003-06-23 07:21:49 51°19.96 2°46.01 280.1 12.4 279 16.3
2003-06-23 07:21:53 51°19.97 2°45.99 280.7 12.4 281 16.4
2003-06-23 07:21:59 51°19.97 2°45.95 280.8 12.4 280 14.9
2003-06-23 07:22:05 51°19.97 2°45.92 280.6 12.3 280 15
2003-06-23 07:22:09 51°19.98 2°45.9 280.2 12.3 280 17
2003-06-23 07:22:13 51°19.98 2°45.88 280.1 12.3 280 16.5
2003-06-23 07:22:17 51°19.98 2°45.86 280.1 12.4 280 16.9
2003-06-23 07:22:25 51°19.98 2°45.81 280.4 12.4 280 16.9
2003-06-23 07:22:29 51°19.99 2°45.79 280.7 12.4 281 17.4
2003-06-23 07:22:33 51°19.99 2°45.77 280.5 12.3 281 17.8
2003-06-23 07:22:39 51°19.99 2°45.74 279.8 12.3 279 15.4
2003-06-23 07:22:45 51°20 2°45.71 279.8 12.3 280 14.6
2003-06-23 07:22:49 51°20 2°45.68 280.1 12.3 280 15.5
2003-06-23 07:22:53 51°20 2°45.66 280.5 12.3 281 16.4
2003-06-23 07:22:59 51°20.01 2°45.63 280.6 12.3 281 16.7
2003-06-23 07:23:05 51°20.01 2°45.6 280.5 12.4 281 17.7
2003-06-23 07:23:09 51°20.01 2°45.58 280.4 12.4 281 18.7
2003-06-23 07:23:13 51°20.02 2°45.55 280.4 12.4 281 19.9
2003-06-23 07:23:19 51°20.02 2°45.52 280.7 12.4 281 20.8
2003-06-23 07:23:25 51°20.02 2°45.49 280.8 12.5 282 21.5
2003-06-23 07:23:29 51°20.03 2°45.47 280.8 12.4 282 22.2
2003-06-23 07:23:33 51°20.03 2°45.45 280.4 12.4 281 22.7
2003-06-23 07:23:39 51°20.03 2°45.41 280.1 12.5 281 23.1
2003-06-23 07:23:45 51°20.04 2°45.38 280 12.5 281 23.4
2003-06-23 07:23:49 51°20.04 2°45.36 280 12.5 281 23.7
2003-06-23 07:23:53 51°20.04 2°45.34 280.1 12.5 281 23.6
2003-06-23 07:23:59 51°20.05 2°45.3 280.1 12.6 281 24.1
2003-06-23 07:24:05 51°20.05 2°45.27 280.1 12.6 281 24.3
2003-06-23 07:24:09 51°20.05 2°45.25 280 12.6 281 24.6
2003-06-23 07:24:13 51°20.06 2°45.23 280 12.6 281 24.6
2003-06-23 07:24:17 51°20.06 2°45.21 280.2 12.6 281 24.6
2003-06-23 07:24:25 51°20.06 2°45.16 279.8 12.6 280 24.8
2003-06-23 07:24:29 51°20.07 2°45.14 280.2 12.7 282 24.9
2003-06-23 07:24:33 51°20.07 2°45.12 280.1 12.6 281 25
2003-06-23 07:24:39 51°20.07 2°45.09 280.1 12.6 281 25.2
2003-06-23 07:24:45 51°20.08 2°45.05 280.1 12.6 281 25.2
2003-06-23 07:24:49 51°20.08 2°45.03 280 12.6 281 25.3
2003-06-23 07:24:53 51°20.08 2°45.01 280 12.6 281 25.3
2003-06-23 07:24:59 51°20.09 2°44.98 280.1 12.6 281 25.6
2003-06-23 07:25:05 51°20.09 2°44.94 280.2 12.6 281 25.6
2003-06-23 07:25:09 51°20.09 2°44.92 279.9 12.6 280 25.6
2003-06-23 07:25:13 51°20.1 2°44.9 279.9 12.7 281 25.5
2003-06-23 07:25:17 51°20.1 2°44.88 280.1 12.7 281 25.5
2003-06-23 07:25:25 51°20.1 2°44.83 280.2 12.7 281 25.6
2003-06-23 07:25:29 51°20.11 2°44.81 280.1 12.7 281 25.4
2003-06-23 07:25:33 51°20.11 2°44.79 280.1 12.7 281 25.4
2003-06-23 07:25:39 51°20.11 2°44.76 280.1 12.7 281 25.5
2003-06-23 07:25:45 51°20.12 2°44.72 280.4 12.7 281 25.5
2003-06-23 07:25:49 51°20.12 2°44.7 280.5 12.7 281 25.1
2003-06-23 07:25:53 51°20.12 2°44.68 279.9 12.7 280 25.2
2003-06-23 07:25:59 51°20.13 2°44.64 280.1 12.8 281 25
2003-06-23 07:26:05 51°20.13 2°44.61 280.3 12.8 281 25.2
2003-06-23 07:26:09 51°20.13 2°44.59 280.2 12.8 281 25.2
2003-06-23 07:26:13 51°20.14 2°44.57 280.2 12.8 281 25
2003-06-23 07:26:19 51°20.14 2°44.53 280.3 12.8 281 25
2003-06-23 07:26:25 51°20.14 2°44.5 280.6 12.7 281 24.9
2003-06-23 07:26:29 51°20.15 2°44.48 280.7 12.7 282 25.5
2003-06-23 07:26:33 51°20.15 2°44.46 280.1 12.8 281 26.1
2003-06-23 07:26:39 51°20.15 2°44.42 280.1 12.8 281 26.2
2003-06-23 07:26:45 51°20.16 2°44.39 280.1 12.8 281 26.3
2003-06-23 07:26:49 51°20.16 2°44.37 279.7 12.8 280 26.5
2003-06-23 07:26:53 51°20.16 2°44.34 280 12.8 281 26.8
2003-06-23 07:26:59 51°20.17 2°44.31 280 12.8 281 27
2003-06-23 07:27:05 51°20.17 2°44.28 280.1 12.8 281 27.1
2003-06-23 07:27:09 51°20.17 2°44.26 279.9 12.8 280 27.2
2003-06-23 07:27:13 51°20.18 2°44.23 280 12.9 281 27.2
2003-06-23 07:27:17 51°20.18 2°44.21 280.1 12.9 281 27.1
2003-06-23 07:27:25 51°20.19 2°44.17 280.3 12.9 281 27.3
2003-06-23 07:27:29 51°20.19 2°44.14 280.4 12.9 281 27.5
2003-06-23 07:27:33 51°20.19 2°44.12 280.3 12.9 281 27.5
2003-06-23 07:27:39 51°20.2 2°44.09 280.3 12.9 281 27.6
2003-06-23 07:27:45 51°20.2 2°44.05 280.3 12.9 281 27.5
2003-06-23 07:27:49 51°20.2 2°44.03 280.3 12.9 281 27.7
2003-06-23 07:27:53 51°20.2 2°44.01 280.1 12.9 281 28
2003-06-23 07:27:59 51°20.21 2°43.98 279.9 12.9 281 28.2
2003-06-23 07:28:05 51°20.21 2°43.94 279.9 13 281 28.2
2003-06-23 07:28:09 51°20.22 2°43.92 280 13 281 28.4
2003-06-23 07:28:13 51°20.22 2°43.9 280.1 13 281 28.2
2003-06-23 07:28:17 51°20.22 2°43.87 280.1 12.9 281 28.1
2003-06-23 07:28:25 51°20.23 2°43.83 280 13 281 28.4
2003-06-23 07:28:29 51°20.23 2°43.81 279.8 13 280 28.4
2003-06-23 07:28:33 51°20.23 2°43.78 280 13 282 28.5
2003-06-23 07:28:39 51°20.24 2°43.75 280.3 13 281 28.5
2003-06-23 07:28:45 51°20.24 2°43.72 280.3 13 281 28.6
2003-06-23 07:28:49 51°20.24 2°43.69 280.1 13 281 28.4
2003-06-23 07:28:53 51°20.25 2°43.67 280.1 13 281 28.3
2003-06-23 07:28:59 51°20.25 2°43.64 280.1 13 281 28.1
2003-06-23 07:29:05 51°20.25 2°43.6 279.9 13 281 28.1
2003-06-23 07:29:09 51°20.26 2°43.58 279.9 13 281 28.6
2003-06-23 07:29:13 51°20.26 2°43.56 280.2 13 281 28.7
2003-06-23 07:29:19 51°20.26 2°43.53 280.7 13 282 28.8
2003-06-23 07:29:25 51°20.27 2°43.49 280.4 13 281 28.7
2003-06-23 07:29:29 51°20.27 2°43.47 280.3 13 281 28.6
2003-06-23 07:29:33 51°20.27 2°43.45 280.1 13 281 28.4
2003-06-23 07:29:39 51°20.28 2°43.41 279 12.9 278 28.5
2003-06-23 07:29:45 51°20.28 2°43.38 278.6 12.8 277 28.2
2003-06-23 07:29:49 51°20.28 2°43.36 279 12.8 278 28.1
2003-06-23 07:29:53 51°20.28 2°43.33 280 12.8 278 28
2003-06-23 07:29:59 51°20.29 2°43.3 280.3 12.8 280 28
2003-06-23 07:30:05 51°20.29 2°43.27 280.4 12.7 279 27.9
2003-06-23 07:30:09 51°20.29 2°43.24 280.4 12.7 279 28.1
2003-06-23 07:30:13 51°20.29 2°43.22 280.5 12.7 279 28
2003-06-23 07:30:17 51°20.3 2°43.2 280.8 12.6 280 28
2003-06-23 07:30:25 51°20.3 2°43.16 280.6 12.7 279 27.9
2003-06-23 07:30:29 51°20.3 2°43.13 280.5 12.6 279 27.9
2003-06-23 07:30:33 51°20.3 2°43.11 279.8 12.6 278 27.8
2003-06-23 07:30:39 51°20.31 2°43.08 280 12.7 279 27.7
2003-06-23 07:30:45 51°20.31 2°43.05 280.1 12.6 278 27.5
2003-06-23 07:30:49 51°20.31 2°43.02 280.6 12.7 280 27.5
2003-06-23 07:30:53 51°20.31 2°43 280.6 12.6 278 27.4
2003-06-23 07:30:59 51°20.32 2°42.97 280.7 12.6 280 27.2
2003-06-23 07:31:05 51°20.32 2°42.93 280.6 12.7 279 25.8
2003-06-23 07:31:09 51°20.32 2°42.91 280.1 12.6 279 26.3
2003-06-23 07:31:13 51°20.33 2°42.89 280.1 12.6 278 25.7
2003-06-23 07:31:19 51°20.33 2°42.86 280.5 12.6 279 24.3
2003-06-23 07:31:25 51°20.33 2°42.82 280.8 12.6 280 25.5
2003-06-23 07:31:29 51°20.33 2°42.8 280.8 12.6 279 25.9
2003-06-23 07:31:33 51°20.34 2°42.78 280.6 12.6 279 26.1
2003-06-23 07:31:39 51°20.34 2°42.75 280.1 12.6 278 25.9
2003-06-23 07:31:45 51°20.34 2°42.71 280.1 12.6 279 25.9
2003-06-23 07:31:49 51°20.35 2°42.69 280.4 12.6 279 24.3
2003-06-23 07:31:53 51°20.35 2°42.67 280.8 12.7 279 24
2003-06-23 07:31:57 51°20.35 2°42.65 280.7 12.6 279 25
2003-06-23 07:32:05 51°20.35 2°42.6 280.5 12.6 279 24.8
2003-06-23 07:32:09 51°20.36 2°42.58 280.1 12.6 278 22.3
2003-06-23 07:32:13 51°20.36 2°42.56 280.5 12.6 279 24
2003-06-23 07:32:19 51°20.36 2°42.53 280.4 12.6 279 24.5
2003-06-23 07:32:25 51°20.36 2°42.49 280.5 12.6 279 24.5
2003-06-23 07:32:29 51°20.37 2°42.47 280.1 12.6 278 22.3
2003-06-23 07:32:33 51°20.37 2°42.45 280.1 12.6 278 22.2
2003-06-23 07:32:39 51°20.37 2°42.42 280.6 12.6 279 22.5
2003-06-23 07:32:45 51°20.38 2°42.38 280.2 12.6 279 22
2003-06-23 07:32:49 51°20.38 2°42.36 280.7 12.6 279 22.2
2003-06-23 07:32:53 51°20.38 2°42.34 280.6 12.6 278 22.5
2003-06-23 07:32:59 51°20.38 2°42.31 280.5 12.6 279 21.8
2003-06-23 07:33:05 51°20.39 2°42.27 280.1 12.5 278 21.7
2003-06-23 07:33:09 51°20.39 2°42.25 280 12.6 279 21.1
2003-06-23 07:33:13 51°20.39 2°42.23 280.3 12.6 279 19.9
2003-06-23 07:33:19 51°20.39 2°42.2 280.6 12.5 280 17.2
2003-06-23 07:33:25 51°20.4 2°42.16 280.2 12.5 279 19.5
2003-06-23 07:33:29 51°20.4 2°42.14 280.7 12.4 280 20.3
2003-06-23 07:33:33 51°20.4 2°42.12 280.5 12.4 279 20.1
2003-06-23 07:33:39 51°20.4 2°42.09 280.1 12.5 280 19.5
2003-06-23 07:33:45 51°20.41 2°42.05 280.1 12.5 279 20.4
2003-06-23 07:33:49 51°20.41 2°42.03 280.5 12.5 280 21
2003-06-23 07:33:53 51°20.41 2°42.01 280.7 12.5 279 20.7
2003-06-23 07:33:59 51°20.42 2°41.98 280.2 12.5 280 19.1
2003-06-23 07:34:05 51°20.42 2°41.94 280.5 12.5 279 18.7
2003-06-23 07:34:09 51°20.42 2°41.92 280.7 12.5 281 20.5
2003-06-23 07:34:13 51°20.42 2°41.9 280.6 12.5 280 21.6
2003-06-23 07:34:17 51°20.43 2°41.88 280.6 12.5 280 21.9
2003-06-23 07:34:25 51°20.43 2°41.84 280.2 12.5 280 21.3
2003-06-23 07:34:29 51°20.43 2°41.81 280.4 12.5 281 22.5
2003-06-23 07:34:33 51°20.44 2°41.79 280.7 12.4 280 22.5
2003-06-23 07:34:39 51°20.44 2°41.76 280.6 12.5 281 22.7
2003-06-23 07:34:45 51°20.44 2°41.73 280.3 12.5 280 22.7
2003-06-23 07:34:49 51°20.45 2°41.7 280.5 12.5 281 22.8
2003-06-23 07:34:53 51°20.45 2°41.68 280.3 12.5 280 22.6
2003-06-23 07:34:59 51°20.45 2°41.65 280.1 12.5 280 22.5
2003-06-23 07:35:05 51°20.46 2°41.62 279.9 12.5 280 22.8
2003-06-23 07:35:09 51°20.46 2°41.6 280.2 12.5 280 22.9
2003-06-23 07:35:13 51°20.46 2°41.57 280.4 12.5 280 22.4
2003-06-23 07:35:17 51°20.46 2°41.55 280.8 12.6 281 21.9
2003-06-23 07:35:25 51°20.47 2°41.51 280.5 12.5 280 21.8
2003-06-23 07:35:29 51°20.47 2°41.49 280.2 12.5 280 22
2003-06-23 07:35:33 51°20.47 2°41.46 280.3 12.5 281 22.5
2003-06-23 07:35:39 51°20.48 2°41.43 280.1 12.5 280 23.4
2003-06-23 07:35:45 51°20.48 2°41.4 280.4 12.6 281 22.3
2003-06-23 07:35:49 51°20.48 2°41.38 280.6 12.6 281 22.9
2003-06-23 07:35:53 51°20.49 2°41.36 280.4 12.6 281 23.7
2003-06-23 07:35:59 51°20.49 2°41.32 280.3 12.6 281 24.1
2003-06-23 07:36:05 51°20.49 2°41.29 280.1 12.6 281 25
2003-06-23 07:36:09 51°20.5 2°41.27 280.1 12.6 281 26.1
2003-06-23 07:36:13 51°20.5 2°41.25 280.7 12.6 281 27
2003-06-23 07:36:19 51°20.5 2°41.21 280.8 12.7 282 28
2003-06-23 07:36:25 51°20.51 2°41.18 280.6 12.7 281 28.6
2003-06-23 07:36:29 51°20.51 2°41.16 280.1 12.7 281 29.1
2003-06-23 07:36:33 51°20.51 2°41.14 280.1 12.7 281 29.4
2003-06-23 07:36:39 51°20.52 2°41.1 280.6 12.8 281 29.6
2003-06-23 07:36:45 51°20.52 2°41.07 280.7 12.8 282 29.7
2003-06-23 07:36:49 51°20.52 2°41.05 280.1 12.8 281 29.7
2003-06-23 07:36:53 51°20.53 2°41.02 280.4 12.8 282 29.9
2003-06-23 07:36:59 51°20.53 2°40.99 280.4 12.8 281 29.6
2003-06-23 07:37:05 51°20.54 2°40.96 280.4 12.8 282 29.6
2003-06-23 07:37:09 51°20.54 2°40.94 280.2 12.8 281 29.6
2003-06-23 07:37:13 51°20.54 2°40.91 279.8 12.8 281 29.3
2003-06-23 07:37:17 51°20.54 2°40.89 280.1 12.8 281 29.1
2003-06-23 07:37:25 51°20.55 2°40.85 280.3 12.8 281 29.3
2003-06-23 07:37:29 51°20.55 2°40.82 280.4 12.8 281 29.2
2003-06-23 07:37:33 51°20.56 2°40.8 280.3 12.8 282 29.3
2003-06-23 07:37:39 51°20.56 2°40.77 280.1 12.8 281 29.4
2003-06-23 07:37:45 51°20.56 2°40.73 280.1 12.9 281 29.3
2003-06-23 07:37:49 51°20.57 2°40.71 280.5 12.9 282 28.8
2003-06-23 07:37:53 51°20.57 2°40.69 280.7 12.8 282 28.8
2003-06-23 07:37:59 51°20.57 2°40.66 280.1 12.8 282 28.6
2003-06-23 07:38:05 51°20.58 2°40.62 280.1 12.9 282 28.5
2003-06-23 07:38:09 51°20.58 2°40.6 280.2 12.9 282 28.3
2003-06-23 07:38:13 51°20.58 2°40.58 280.5 12.9 282 28.3
2003-06-23 07:38:17 51°20.59 2°40.56 280.3 12.8 282 28.3
2003-06-23 07:38:25 51°20.59 2°40.51 280 12.9 281 28.1
2003-06-23 07:38:29 51°20.6 2°40.49 280.2 12.9 282 28
2003-06-23 07:38:33 51°20.6 2°40.47 280.4 12.9 282 27.9
2003-06-23 07:38:39 51°20.6 2°40.43 280.3 12.9 282 27.8
2003-06-23 07:38:45 51°20.61 2°40.4 280.1 12.9 281 27.8
2003-06-23 07:38:49 51°20.61 2°40.38 280 12.9 281 27.9
2003-06-23 07:38:53 51°20.61 2°40.35 280.1 12.9 281 28.1
2003-06-23 07:38:59 51°20.62 2°40.32 280.3 12.9 282 28.3
2003-06-23 07:39:05 51°20.62 2°40.29 280.2 13 281 28.3
2003-06-23 07:39:09 51°20.62 2°40.26 279.8 12.9 281 28.2
2003-06-23 07:39:13 51°20.63 2°40.24 278.9 12.9 278 28.4
2003-06-23 07:39:19 51°20.63 2°40.21 279.4 12.9 279 28.6
2003-06-23 07:39:25 51°20.63 2°40.17 279.9 12.9 279 28.4
2003-06-23 07:39:29 51°20.64 2°40.15 280.4 12.8 280 28.5
2003-06-23 07:39:33 51°20.64 2°40.13 280.7 12.8 281 28.4
2003-06-23 07:39:39 51°20.64 2°40.1 280.4 12.8 280 28.3
2003-06-23 07:39:45 51°20.65 2°40.06 280.1 12.8 280 28.6
2003-06-23 07:39:49 51°20.65 2°40.04 280.5 12.8 281 28.4
2003-06-23 07:39:53 51°20.65 2°40.02 280.4 12.8 280 28.4
2003-06-23 07:39:59 51°20.65 2°39.98 280.1 12.7 280 28.5
2003-06-23 07:40:05 51°20.66 2°39.95 280.1 12.8 280 28.4
2003-06-23 07:40:09 51°20.66 2°39.93 280.8 12.8 280 28.2
2003-06-23 07:40:13 51°20.66 2°39.91 280.5 12.7 280 27.9
2003-06-23 07:40:17 51°20.67 2°39.88 280.5 12.7 279 27.6
2003-06-23 07:40:25 51°20.67 2°39.84 280.6 12.8 280 27.6
2003-06-23 07:40:29 51°20.67 2°39.82 280.3 12.7 280 27.8
2003-06-23 07:40:33 51°20.68 2°39.8 280.1 12.7 281 27.8
2003-06-23 07:40:39 51°20.68 2°39.76 280.2 12.7 280 27.7
2003-06-23 07:40:45 51°20.68 2°39.73 280.6 12.7 280 27.5
2003-06-23 07:40:49 51°20.69 2°39.71 280.8 12.7 280 27.6
2003-06-23 07:40:53 51°20.69 2°39.68 280.5 12.7 280 27.2
2003-06-23 07:40:59 51°20.69 2°39.65 280.2 12.7 280 26.9
2003-06-23 07:41:05 51°20.7 2°39.62 280.1 12.8 280 26.4
2003-06-23 07:41:09 51°20.7 2°39.6 280.6 12.8 281 26.9
2003-06-23 07:41:13 51°20.7 2°39.57 280.1 12.7 279 27.1
2003-06-23 07:41:17 51°20.7 2°39.55 280.1 12.8 280 27
2003-06-23 07:41:25 51°20.71 2°39.51 280.2 12.8 280 27
2003-06-23 07:41:29 51°20.71 2°39.48 280.2 12.8 280 27
2003-06-23 07:41:33 51°20.71 2°39.46 280.5 12.8 280 26.9
2003-06-23 07:41:39 51°20.72 2°39.43 280.6 12.8 281 26.8
2003-06-23 07:41:45 51°20.72 2°39.39 280.7 12.7 280 26.8
2003-06-23 07:41:49 51°20.72 2°39.37 280.4 12.7 280 26.7
2003-06-23 07:41:53 51°20.73 2°39.35 280.1 12.7 279 26.6
2003-06-23 07:41:59 51°20.73 2°39.32 280.6 12.7 280 26.6
2003-06-23 07:42:05 51°20.73 2°39.28 280.4 12.7 280 26.7
2003-06-23 07:42:09 51°20.74 2°39.26 280.1 12.7 280 26.7
2003-06-23 07:42:13 51°20.74 2°39.24 280.1 12.8 280 26.4
2003-06-23 07:42:19 51°20.74 2°39.21 280.4 12.8 280 26.6
2003-06-23 07:42:25 51°20.74 2°39.17 280.4 12.8 280 26.6
2003-06-23 07:42:29 51°20.75 2°39.15 280.1 12.8 280 26.7
2003-06-23 07:42:33 51°20.75 2°39.13 280.1 12.8 279 26.7
2003-06-23 07:42:39 51°20.75 2°39.09 280.1 12.8 280 26.7
2003-06-23 07:42:45 51°20.76 2°39.06 280.8 12.8 281 26.7
2003-06-23 07:42:49 51°20.76 2°39.04 280.6 12.8 280 26.5
2003-06-23 07:42:53 51°20.76 2°39.02 280.3 12.8 280 26.4
2003-06-23 07:42:59 51°20.77 2°38.98 280.1 12.8 279 25.9
2003-06-23 07:43:05 51°20.77 2°38.95 279.6 12.8 279 26.4
2003-06-23 07:43:09 51°20.77 2°38.93 279.8 12.8 279 26.3
2003-06-23 07:43:13 51°20.77 2°38.9 280.4 12.8 280 26.3
2003-06-23 07:43:17 51°20.78 2°38.88 280.7 12.8 280 26.3
2003-06-23 07:43:25 51°20.78 2°38.84 280.3 12.8 279 26.1
2003-06-23 07:43:29 51°20.78 2°38.81 280.3 12.9 280 25.6
2003-06-23 07:43:33 51°20.79 2°38.79 280.1 12.8 279 26.2
2003-06-23 07:43:39 51°20.79 2°38.76 280 12.8 280 26.5
2003-06-23 07:43:45 51°20.79 2°38.72 280.2 12.8 279 26.4
2003-06-23 07:43:49 51°20.8 2°38.7 280.1 12.9 279 26.5
2003-06-23 07:43:53 51°20.8 2°38.68 280.2 12.9 280 26.3
2003-06-23 07:43:59 51°20.8 2°38.65 280.8 12.9 280 26.1
2003-06-23 07:44:05 51°20.81 2°38.61 280.5 12.9 280 25.5
2003-06-23 07:44:09 51°20.81 2°38.59 280 12.9 279 25.3
2003-06-23 07:44:13 51°20.81 2°38.57 280.4 12.9 280 25.9
2003-06-23 07:44:17 51°20.81 2°38.54 280.3 12.9 279 25.8
2003-06-23 07:44:25 51°20.82 2°38.5 280.1 12.9 279 25.3
2003-06-23 07:44:29 51°20.82 2°38.48 280.1 12.9 278 25.3
2003-06-23 07:44:33 51°20.82 2°38.45 280 12.9 279 26.2
2003-06-23 07:44:39 51°20.82 2°38.42 280.6 12.9 279 26.4
2003-06-23 07:44:45 51°20.83 2°38.39 280.5 12.9 279 25.9
2003-06-23 07:44:49 51°20.83 2°38.36 280.3 13 279 25
2003-06-23 07:44:53 51°20.83 2°38.34 280.2 12.9 280 25.7
2003-06-23 07:44:59 51°20.84 2°38.31 280.6 12.9 280 25.7
2003-06-23 07:45:05 51°20.84 2°38.27 280.2 12.9 279 25.1
2003-06-23 07:45:09 51°20.84 2°38.25 280.2 12.9 279 25.7
2003-06-23 07:45:13 51°20.84 2°38.23 280.5 12.9 279 25.1
2003-06-23 07:45:19 51°20.85 2°38.19 280.5 13 279 25.1
2003-06-23 07:45:25 51°20.85 2°38.16 280.2 13 279 25.6
2003-06-23 07:45:29 51°20.85 2°38.14 280.6 13 279 25.4
2003-06-23 07:45:33 51°20.86 2°38.11 280.4 13 280 24.9
2003-06-23 07:45:39 51°20.86 2°38.08 280.4 12.9 279 23.1
2003-06-23 07:45:45 51°20.86 2°38.05 280.3 12.9 279 25.7
2003-06-23 07:45:49 51°20.86 2°38.02 280.1 12.9 279 26.2
2003-06-23 07:45:53 51°20.87 2°38 280.1 12.9 280 26
2003-06-23 07:45:59 51°20.87 2°37.97 280.5 12.9 279 26.3
2003-06-23 07:46:05 51°20.87 2°37.93 280.5 12.9 279 26.4
2003-06-23 07:46:09 51°20.88 2°37.91 280.3 12.9 279 26.3
2003-06-23 07:46:13 51°20.88 2°37.89 280.1 12.8 279 26.2
2003-06-23 07:46:17 51°20.88 2°37.87 280.1 12.9 279 26.2
2003-06-23 07:46:25 51°20.89 2°37.82 280.4 12.9 279 26.1
2003-06-23 07:46:29 51°20.89 2°37.8 280.5 12.9 280 26.2
2003-06-23 07:46:33 51°20.89 2°37.78 280.6 12.9 279 26
2003-06-23 07:46:39 51°20.89 2°37.74 280.8 12.9 280 24.5
2003-06-23 07:46:45 51°20.9 2°37.71 280.8 12.9 280 25.9
2003-06-23 07:46:49 51°20.9 2°37.69 280.7 12.8 280 25.8
2003-06-23 07:46:53 51°20.9 2°37.66 280.3 12.8 279 26.2
2003-06-23 07:46:59 51°20.91 2°37.63 280.1 12.8 279 26.1
2003-06-23 07:47:05 51°20.91 2°37.6 280.2 12.8 279 26.2
2003-06-23 07:47:09 51°20.91 2°37.58 280.4 12.8 279 24.8
2003-06-23 07:47:13 51°20.91 2°37.55 280.3 12.9 279 26.3
2003-06-23 07:47:19 51°20.92 2°37.52 280.4 12.8 279 26.2
2003-06-23 07:47:25 51°20.92 2°37.49 280.2 12.8 279 24.9
2003-06-23 07:47:29 51°20.92 2°37.46 280.3 12.8 279 25.9
2003-06-23 07:47:33 51°20.93 2°37.44 280.3 12.8 279 26.4
2003-06-23 07:47:39 51°20.93 2°37.41 280.1 12.8 279 26.3
2003-06-23 07:47:45 51°20.93 2°37.37 280.1 12.8 279 26.4
2003-06-23 07:47:49 51°20.93 2°37.35 280.3 12.9 280 26.2
2003-06-23 07:47:53 51°20.94 2°37.33 280.6 12.8 279 25.7
2003-06-23 07:47:57 51°20.94 2°37.31 280.3 12.8 279 24.8
2003-06-23 07:48:05 51°20.94 2°37.26 279.8 12.8 278 25.5
2003-06-23 07:48:09 51°20.95 2°37.24 278.5 12.8 277 25.5
2003-06-23 07:48:13 51°20.95 2°37.22 277.1 12.8 276 25.7
2003-06-23 07:48:19 51°20.95 2°37.18 276.3 12.7 276 24.4
2003-06-23 07:48:25 51°20.95 2°37.15 275.4 12.8 274 24.7
2003-06-23 07:48:29 51°20.95 2°37.13 275.4 12.7 275 25
2003-06-23 07:48:33 51°20.95 2°37.1 275 12.7 274 23.5
2003-06-23 07:48:39 51°20.95 2°37.07 274.9 12.7 274 24.7
2003-06-23 07:48:45 51°20.95 2°37.04 274.9 12.7 274 24.8
2003-06-23 07:48:49 51°20.95 2°37.01 274.8 12.7 273 23.6
2003-06-23 07:48:53 51°20.96 2°36.99 274.8 12.7 274 24
2003-06-23 07:48:57 51°20.96 2°36.97 274.5 12.7 273 25
2003-06-23 07:49:05 51°20.96 2°36.92 274.7 12.7 273 25.6
2003-06-23 07:49:09 51°20.96 2°36.9 274.9 12.7 274 23.9
2003-06-23 07:49:13 51°20.96 2°36.88 275 12.7 274 24.1
2003-06-23 07:49:19 51°20.96 2°36.84 275 12.7 274 25.4
2003-06-23 07:49:25 51°20.96 2°36.81 275 12.7 273 25.9
2003-06-23 07:49:29 51°20.96 2°36.79 275 12.7 274 26
2003-06-23 07:49:33 51°20.96 2°36.77 274.7 12.7 273 24.3
2003-06-23 07:49:39 51°20.97 2°36.73 275 12.7 274 25
2003-06-23 07:49:45 51°20.97 2°36.7 274.9 12.6 273 25.7
2003-06-23 07:49:49 51°20.97 2°36.68 274.7 12.7 274 26.1
2003-06-23 07:49:53 51°20.97 2°36.65 274.9 12.7 274 24.7
2003-06-23 07:49:57 51°20.97 2°36.63 275.1 12.8 274 25.6
2003-06-23 07:50:05 51°20.97 2°36.59 275.1 12.7 274 26.6
2003-06-23 07:50:09 51°20.97 2°36.56 275 12.7 274 26.7
2003-06-23 07:50:13 51°20.97 2°36.54 275.1 12.7 274 27.1
2003-06-23 07:50:19 51°20.98 2°36.51 274.9 12.7 273 25.6
2003-06-23 07:50:25 51°20.98 2°36.47 274.5 12.7 273 24.8
2003-06-23 07:50:29 51°20.98 2°36.45 274.8 12.7 274 26.7
2003-06-23 07:50:33 51°20.98 2°36.43 275.8 12.8 274 27.5
2003-06-23 07:50:39 51°20.98 2°36.39 275.8 12.8 275 28.1
2003-06-23 07:50:45 51°20.98 2°36.36 275.3 12.7 275 27.6
2003-06-23 07:50:49 51°20.98 2°36.34 275.3 12.7 275 25
2003-06-23 07:50:53 51°20.98 2°36.32 275 12.8 274 26.9
2003-06-23 07:50:57 51°20.99 2°36.29 275 12.7 274 27.4
2003-06-23 07:51:05 51°20.99 2°36.25 274.9 12.6 274 25.7
2003-06-23 07:51:09 51°20.99 2°36.23 274.5 12.7 274 26.1
2003-06-23 07:51:13 51°20.99 2°36.2 275.5 12.7 276 26.9
2003-06-23 07:51:19 51°20.99 2°36.17 275.6 12.7 275 28.2
2003-06-23 07:51:25 51°20.99 2°36.14 275.3 12.7 275 28.5
2003-06-23 07:51:29 51°20.99 2°36.11 275.2 12.8 275 26.7
2003-06-23 07:51:33 51°21 2°36.09 274.9 12.8 274 26.9
2003-06-23 07:51:39 51°21 2°36.06 274.7 12.7 275 28.1
2003-06-23 07:51:45 51°21 2°36.02 274.9 12.6 275 29.4
2003-06-23 07:51:49 51°21 2°36 275.2 12.7 275 29.7
2003-06-23 07:51:53 51°21 2°35.98 275.3 12.7 275 29.8
2003-06-23 07:51:57 51°21 2°35.96 275.2 12.7 275 27.7
2003-06-23 07:52:05 51°21.01 2°35.91 275.1 12.7 275 26.5
2003-06-23 07:52:09 51°21.01 2°35.89 275.1 12.7 275 27.4
2003-06-23 07:52:15 51°21.01 2°35.86 275 12.7 275 29.7
2003-06-23 07:52:19 51°21.01 2°35.83 275.1 12.7 276 29
2003-06-23 07:52:25 51°21.01 2°35.8 275.3 12.7 276 28.2
2003-06-23 07:52:29 51°21.01 2°35.78 275.6 12.7 276 29.4
2003-06-23 07:52:33 51°21.01 2°35.76 275.4 12.7 275 31
2003-06-23 07:52:39 51°21.02 2°35.72 275 12.7 275 31.7
2003-06-23 07:52:45 51°21.02 2°35.69 275 12.7 275 31.8
2003-06-23 07:52:49 51°21.02 2°35.67 275 12.7 275 31.9
2003-06-23 07:52:53 51°21.02 2°35.64 275 12.7 276 30.5
2003-06-23 07:52:57 51°21.02 2°35.62 275.3 12.7 275 29.4
2003-06-23 07:53:05 51°21.03 2°35.58 275.6 12.7 276 31
2003-06-23 07:53:09 51°21.03 2°35.55 275.6 12.7 276 32.1
2003-06-23 07:53:13 51°21.03 2°35.53 276.1 12.7 277 32.3
2003-06-23 07:53:19 51°21.03 2°35.5 276 12.7 277 32.8
2003-06-23 07:53:25 51°21.03 2°35.46 275.3 12.6 276 32.8
2003-06-23 07:53:29 51°21.03 2°35.44 275 12.6 276 32.8
2003-06-23 07:53:33 51°21.04 2°35.42 274.9 12.6 276 33.1
2003-06-23 07:53:39 51°21.04 2°35.39 274.3 12.6 274 33.1
2003-06-23 07:53:45 51°21.04 2°35.35 275 12.6 277 32.3
2003-06-23 07:53:49 51°21.04 2°35.33 275 12.6 275 33
2003-06-23 07:53:53 51°21.04 2°35.31 275 12.6 276 31.8
2003-06-23 07:53:57 51°21.04 2°35.29 275.4 12.6 276 31.8
2003-06-23 07:54:05 51°21.05 2°35.24 275.6 12.6 277 31.4
2003-06-23 07:54:09 51°21.05 2°35.22 275.3 12.6 276 32.7
2003-06-23 07:54:13 51°21.05 2°35.2 275 12.6 276 32.4
2003-06-23 07:54:19 51°21.05 2°35.16 275.2 12.6 276 32.6
2003-06-23 07:54:25 51°21.05 2°35.13 275.2 12.6 276 32.9
2003-06-23 07:54:29 51°21.06 2°35.11 274.7 12.5 275 33.2
2003-06-23 07:54:33 51°21.06 2°35.09 274.9 12.6 275 33.3
2003-06-23 07:54:39 51°21.06 2°35.05 275.2 12.6 276 33.4
2003-06-23 07:54:45 51°21.06 2°35.02 275.2 12.6 276 33.8
2003-06-23 07:54:49 51°21.06 2°35 275.3 12.6 276 34
2003-06-23 07:54:53 51°21.06 2°34.98 275.6 12.6 277 33.3
2003-06-23 07:54:57 51°21.07 2°34.95 275.6 12.6 276 33.4
2003-06-23 07:55:05 51°21.07 2°34.91 275.3 12.6 276 33.5